Location: Banff
(51.1667°N, 115.5667°W)
Time: 13:44:36
(UTC+00:00)

Vanguard 1 Rocket - Pass Details

Date: 30 November 2020
Orbit: 655 x 4222 km, 34.3° (Epoch: 23 January)

Event Time Altitude Azimuth Distance (km) Brightness Sun altitude
Rises 08:24:02 0° 224° (SW) 8,167 - -58.8°
Reaches altitude 10° 08:30:04 10° 218° (SW) 7,332 - -58.4°
Maximum altitude 08:52:37 41° 160° (SSE) 4,952 - -56.6°
Exits shadow 08:59:03 35° 131° (SE) 4,879 10.8 -56.0°
Drops below altitude 10° 09:09:57 10° 99° (E) 5,764 11.6 -54.8°
Sets 09:13:54 0° 93° (E) 6,362 12.0 -54.4°
